Location: De Greiden
(52.9496°N, 5.9137°E)
Time: 23:54:04
(UTC+00:00)

Meteor 2-8 Rocket - Pass Details

Date: 24 January 2021
Orbit: 937 x 957 km, 82.5° (Epoch: 01 March)

Event Time Altitude Azimuth Distance (km) Brightness Sun altitude
Rises 17:35:17 0° 350° (N) 3,618 7.4 -13.1°
Reaches altitude 10° 17:37:50 10° 355° (N) 2,671 6.7 -13.5°
Maximum altitude 17:43:50 57° 73° (ENE) 1,112 4.5 -14.4°
Drops below altitude 10° 17:49:50 10° 152° (SSE) 2,667 6.6 -15.3°
Sets 17:52:22 0° 156° (SSE) 3,611 7.4 -15.6°
